Location: *
(35.2348°S, 91.3916°E)
Time: 06:20:42
(UTC+00:00)

ADEOS Rocket - Pass Details

Date: 23 October 2019
Orbit: 859 x 1306 km, 98.7° (Epoch: 18 November)

Event Time Altitude Azimuth Distance (km) Brightness Sun altitude
Rises 13:06:53 0° 7° (N) 3,752 5.8 -10.7°
Reaches altitude 10° 13:09:29 10° 4° (N) 2,747 5.1 -11.2°
Maximum altitude 13:15:31 65° 282° (WNW) 1,019 3.3 -12.3°
Drops below altitude 10° 13:21:10 10° 200° (SSW) 2,567 5.9 -13.4°
Sets 13:23:32 0° 196° (SSW) 3,489 6.5 -13.8°
